Location: Asheville, NC
(35.6000°N, 82.5500°W)
Time: 21:09:47
(UTC-05:00)

KAITUO 1B - Pass Details

Date: 04 January 2018
Orbit: 500 x 521 km, 97.5° (Epoch: 21 January)

Event Time Altitude Azimuth Distance (km) Brightness Sun altitude
Rises 18:39:26 0° 190° (S) 2,628 ? -13.7°
Reaches altitude 10° 18:41:43 10° 202° (SSW) 1,747 ? -14.2°
Maximum altitude 18:45:01 29° 263° (W) 986 ? -14.8°
Drops below altitude 10° 18:48:20 10° 324° (NW) 1,758 ? -15.5°
Sets 18:50:39 0° 336° (NNW) 2,649 ? -15.9°
